GIA176 WIII-WIBB

Flight info

Callsign GIA176
Flight time N/A
Altitude 36000
Route GOMEL T10 OVSET
Aircraft B738/M-SDE2E3FGHIRWXY/LB1

Departure

Time N/A
Airport Soekarno-Hatta International Airport (WIII)

Arrival

Time 2026-04-29 13:59
Airport Sultan Syarif Kasim II International Airport / Roesmin Nurjadin AFB (WIBB)
Time Latitude Longitude Altitude Speed Heading
2026-04-29 13:46 0.30353 101.63081 24977 ft 450 kts 327°
2026-04-29 13:46 0.32959 101.61413 23242 ft 449 kts 327°
2026-04-29 13:46 0.35591 101.59876 21668 ft 443 kts 333°
2026-04-29 13:46 0.38346 101.58650 20087 ft 437 kts 341°
2026-04-29 13:47 0.41215 101.57963 18595 ft 428 kts 352°
2026-04-29 13:47 0.44133 101.57738 17133 ft 419 kts 358°
2026-04-29 13:47 0.46997 101.57659 15661 ft 410 kts 359°
2026-04-29 13:47 0.49760 101.57584 14228 ft 402 kts 358°
2026-04-29 13:48 0.52511 101.57512 12792 ft 394 kts 359°
2026-04-29 13:48 0.55191 101.57439 11378 ft 386 kts 358°
2026-04-29 13:48 0.57820 101.57253 9972 ft 379 kts 353°
2026-04-29 13:48 0.59790 101.57007 8914 ft 373 kts 353°
2026-04-29 13:49 0.62249 101.56700 7569 ft 366 kts 351°
2026-04-29 13:49 0.64625 101.55894 6109 ft 361 kts 329°
2026-04-29 13:49 0.66417 101.54272 4803 ft 353 kts 305°
2026-04-29 13:50 0.67462 101.52116 3542 ft 344 kts 287°
2026-04-29 13:50 0.67951 101.49852 2384 ft 335 kts 276°
2026-04-29 13:50 0.67701 101.47575 1523 ft 326 kts 253°
2026-04-29 13:50 0.66826 101.45593 1513 ft 299 kts 237°
2026-04-29 13:51 0.65655 101.44132 2269 ft 248 kts 221°
2026-04-29 13:51 0.64199 101.43391 2120 ft 234 kts 187°
2026-04-29 13:51 0.62683 101.43677 2087 ft 222 kts 154°
2026-04-29 13:51 0.61301 101.44339 2041 ft 211 kts 161°
2026-04-29 13:52 0.60007 101.44653 1997 ft 172 kts 171°
2026-04-29 13:52 0.58971 101.44759 1981 ft 130 kts 177°
2026-04-29 13:52 0.58059 101.44781 1898 ft 136 kts 180°
2026-04-29 13:52 0.57145 101.44765 2306 ft 134 kts 181°
2026-04-29 13:53 0.56229 101.44735 2203 ft 129 kts 181°
2026-04-29 13:53 0.55317 101.44732 1592 ft 133 kts 182°
2026-04-29 13:53 0.54409 101.44742 1084 ft 132 kts 180°
2026-04-29 13:53 0.53502 101.44742 650 ft 128 kts 176°
2026-04-29 13:54 0.53099 101.44770 461 ft 134 kts 177°
2026-04-29 13:54 0.52293 101.44732 651 ft 141 kts 187°
2026-04-29 13:54 0.51342 101.44628 777 ft 140 kts 184°
2026-04-29 13:54 0.50374 101.44585 741 ft 138 kts 182°
2026-04-29 13:55 0.49405 101.44551 591 ft 137 kts 182°
2026-04-29 13:55 0.48473 101.44527 387 ft 136 kts 179°
2026-04-29 13:55 0.47540 101.44496 222 ft 131 kts 181°
2026-04-29 13:55 0.46643 101.44468 148 ft 115 kts 182°
2026-04-29 13:56 0.45759 101.44429 558 ft 131 kts 183°
2026-04-29 13:56 0.44881 101.44379 836 ft 135 kts 183°
2026-04-29 13:56 0.43972 101.44511 1151 ft 132 kts 145°
2026-04-29 13:56 0.43570 101.45306 1291 ft 137 kts 84°
2026-04-29 13:57 0.44066 101.46064 1428 ft 140 kts 23°
2026-04-29 13:57 0.45027 101.46215 1494 ft 133 kts
2026-04-29 13:57 0.45943 101.46323 1485 ft 140 kts
2026-04-29 13:57 0.46586 101.46384 1505 ft 136 kts
2026-04-29 13:58 0.47827 101.46453 1348 ft 130 kts 356°
2026-04-29 13:58 0.48742 101.46352 1070 ft 134 kts 345°
2026-04-29 13:58 0.49371 101.45713 813 ft 142 kts 275°
2026-04-29 13:58 0.48943 101.44919 745 ft 140 kts 208°
2026-04-29 13:59 0.48042 101.44549 527 ft 142 kts 191°
2026-04-29 13:59 0.47060 101.44485 176 ft 138 kts 181°
2026-04-29 13:59 0.46259 101.44457 142 ft 77 kts 182°
2026-04-29 13:59 0.45953 101.44450 136 ft 15 kts 181°
2026-04-29 14:00 0.45933 101.44450 135 ft 1 kts 181°
2026-04-29 14:00 0.45910 101.44449 135 ft 5 kts 182°